Simultaneous Nadir Overpasses (SNOs) Predictions

Prediction of SNOs between AQUA and GOES-15 Satellite Orbit:

Table of predicted SNOs for the next 14.0 days since TLE Epoch: 11/20/2021
Index Date Time (AQUA) AQUA Lat,Lon GOES-15 Lat,Lon Distance(km) Time Diff (sec)
1 11/20/2021 10:13:30 0.27,-129.38 0.06,-128.38 113.47 80
2 11/22/2021 10:01:19 -0.37,-126.42 0.07,-128.35 219.76 80
3 11/22/2021 22:22:42 -0.76,-131.61 -0.04,-128.34 371.82 80
4 11/24/2021 22:10:31 -0.12,-128.65 -0.05,-128.31 39.20 80
5 11/26/2021 21:58:20 0.53,-125.70 -0.05,-128.27 292.98 80
6 11/27/2021 10:19:35 0.59,-130.85 0.02,-128.26 294.91 80
7 11/29/2021 10:07:24 -0.06,-127.89 0.02,-128.21 36.96 80
8 12/01/2021 09:55:12 -0.66,-124.92 0.03,-128.16 368.35 80
9 12/01/2021 22:16:36 -0.46,-130.11 -0.01,-128.15 224.04 80
10 12/03/2021 22:04:25 0.21,-127.16 -0.02,-128.09 106.49 80
